TDRS 8

Last updated on Mon Feb 16 2026 00:02:40 GMT+0000 (Coordinated Universal Time)

1 26388U 00034A 26046.48586362 -.00000187 00000+0 00000+0 0 9999 2 26388 12.4917 32.3383 0005695 298.4656 74.2945 1.00270517 93961
UTC large
Height (km)
Speed (km/s)
/
Latitude / Longitude
Inclination (degrees)
Orbital Period (minutes)
Azimuth
Elevation
Range (km)
Doppler Factor

Next 0 passes for location: London (51.5072 / 0.1276)

Sorry there are no passes over London.